Wind_Speed
10 9 9 8 8 8 8 8 8 9 9 10 11 11 11 12 13 13 13 13 13 13 14 14 14 14 14 14 14 14 14 14 14 14 13 13 12 12 12 13 13 13 13 12 12 12 12 13 13 13 13 14 14 15 15 16 16 17 17 18 18 18 19 19 19 19 20 20 21 22 23 24 26 27
10 9 9 8 8 8 8 8 8 9 9 10 10 10 11 12 12 12 13 13 13 13 14 14 15 15 15 15 15 16 16 16 16 15 15 15 14 14 13 13 13 14 14 13 13 13 13 13 13 14 14 14 15 15 16 16 17 17 18 18 18 18 19 19 19 19 19 19 20 21 22 23 24 26
9 9 9 9 9 9 9 9 10 10 10 11 11 11 12 12 12 12 12 13 13 14 14 15 15 16 16 16 16 16 17 17 16 16 16 16 15 15 15 15 15 15 15 15 15 15 15 15 15 15 15 16 16 17 17 18 18 19 19 19 19 19 20 20 21 21 21 20 20 21 21 22 23 23
10 10 10 10 10 11 11 11 11 11 11 12 12 12 13 13 13 13 14 14 14 15 15 15 16 16 16 17 17 17 17 16 16 16 16 16 16 16 16 16 16 16 16 16 16 16 17 17 17 17 17 18 18 18 19 19 19 20 20 21 21 21 21 22 22 23 23 23 22 22 23 23 23 23
12 12 12 13 13 13 13 13 13 13 13 13 13 14 14 14 14 15 15 16 16 16 17 17 17 17 17 17 17 17 17 16 16 16 16 16 16 17 18 18 18 18 17 18 18 18 18 19 19 19 20 20 20 20 20 21 21 21 21 22 22 22 23 23 23 23 24 24 24 24 24 24 25 24
15 16 16 15 15 15 14 14 14 14 14 15 15 15 15 16 16 17 17 17 18 18 18 18 18 18 18 18 18 17 17 16 16 16 16 16 17 17 18 19 20 20 20 19 19 20 20 20 20 21 21 22 22 22 23 23 23 23 23 23 23 23 23 23 23 23 24 24 25 25 25 25 25 25
18 18 18 17 17 16 15 15 15 15 15 15 16 17 18 18 19 19 18 19 19 19 19 18 19 19 19 18 18 18 18 17 16 16 17 18 18 18 19 19 20 21 22 22 22 22 22 22 23 23 23 24 24 25 25 25 25 25 25 26 25 25 25 25 25 25 24 24 24 25 25 25 25 25
19 19 19 19 18 18 17 17 17 16 16 17 18 19 19 20 21 21 21 20 20 20 20 19 19 20 20 19 19 18 18 19 19 19 19 20 20 20 21 21 21 22 23 24 25 25 25 25 26 27 27 27 28 28 29 29 28 28 29 28 28 28 28 27 27 27 27 27 26 26 26 26 26 26
19 20 21 21 21 21 20 19 19 19 18 19 21 21 21 22 23 23 23 23 22 21 21 21 21 21 21 20 20 19 20 21 21 21 21 22 22 23 23 24 24 24 24 25 27 29 29 28 29 30 31 32 32 32 33 33 32 32 33 33 32 32 31 31 31 31 31 30 30 30 29 29 29 29
19 20 21 23 23 24 23 22 22 22 21 22 23 23 23 23 25 26 26 25 24 24 23 23 23 23 23 23 23 22 21 22 22 23 23 24 25 26 27 27 28 28 28 28 29 31 32 33 33 34 35 36 37 36 36 36 36 36 36 36 36 36 36 36 36 36 36 36 36 36 36 36 35 35
19 20 21 23 24 26 26 26 25 25 25 24 25 26 25 25 26 28 28 27 26 27 26 25 24 24 24 25 26 25 24 25 25 26 27 28 29 30 30 31 31 31 31 32 32 33 35 36 36 37 38 39 41 41 40 40 39 38 39 39 39 39 39 39 40 40 41 41 41 41 41 42 42 42
22 23 23 24 25 26 27 28 28 27 27 27 26 27 27 27 27 28 29 29 28 28 28 27 27 26 26 27 28 28 28 29 29 30 31 32 33 33 34 34 35 35 35 36 36 36 37 38 39 40 41 41 42 43 43 44 44 44 44 44 44 44 44 44 44 45 45 45 46 46 47 48 48 48
25 25 25 25 26 26 26 28 29 28 28 29 29 29 30 30 30 30 30 30 30 30 30 30 30 30 30 30 31 31 32 32 32 32 33 34 35 35 36 38 39 40 40 40 40 40 40 41 41 41 42 43 43 43 44 45 46 47 48 48 48 49 49 49 49 49 50 50 51 52 53 54 55 55
27 27 27 28 28 28 26 27 28 28 28 29 29 30 31 33 34 33 33 32 33 33 33 32 32 32 32 32 33 34 34 35 35 35 35 35 36 38 39 40 41 42 43 42 42 43 44 44 43 43 44 45 45 45 46 46 47 48 48 49 49 50 50 51 51 51 52 53 54 55 56 57 57 57
30 29 28 29 31 31 29 27 28 29 29 29 29 29 31 34 35 35 35 35 35 35 35 34 34 34 34 34 35 35 36 36 37 38 39 40 41 42 42 42 41 42 43 43 43 43 45 46 46 46 46 47 48 48 48 49 49 49 50 51 51 52 52 53 53 53 53 54 55 56 56 57 57 57
36 34 32 31 32 34 33 31 29 30 31 32 31 30 32 34 35 36 37 37 38 37 37 36 35 36 37 37 37 38 38 39 40 41 43 45 46 46 46 44 42 42 43 44 43 42 44 46 46 47 48 49 50 51 51 51 51 52 52 53 54 54 55 56 56 56 55 56 56 56 57 57 58 58
40 38 35 34 33 34 34 34 32 31 33 34 35 35 36 36 37 39 39 38 38 38 37 37 36 37 39 39 39 40 40 42 43 45 46 47 48 48 47 46 45 44 45 46 45 44 45 46 47 48 50 51 52 53 54 54 55 54 54 55 55 56 57 57 58 58 59 59 59 59 58 58 59 59
39 38 37 36 36 35 34 35 36 36 36 36 37 39 39 37 36 36 35 34 35 35 37 38 37 37 38 39 40 41 42 44 45 46 47 48 48 48 48 48 48 48 49 50 50 49 48 48 48 49 50 52 53 54 55 56 56 57 57 57 57 57 58 59 59 60 60 61 61 61 61 61 60 60
38 39 39 39 39 38 36 36 38 40 40 39 38 40 42 40 36 34 34 35 36 37 37 38 37 37 39 40 41 43 44 45 46 47 47 48 48 48 49 49 49 49 50 51 52 52 51 51 50 50 50 51 52 53 55 56 57 57 58 58 59 59 59 59 60 60 61 62 62 62 63 63 63 62
44 43 44 44 44 44 42 39 38 39 40 40 40 41 42 41 41 41 41 41 41 40 38 37 37 38 39 40 42 43 45 46 47 48 48 49 50 50 50 49 49 49 50 51 52 52 51 51 52 51 51 51 52 53 55 56 56 57 58 58 59 59 59 59 60 60 61 62 62 63 63 63 63 64
46 47 48 48 48 47 46 44 42 41 41 41 42 42 42 43 45 45 44 41 40 38 37 36 37 38 40 42 44 45 47 47 48 49 49 49 50 51 51 50 49 49 50 52 53 53 53 53 53 53 53 53 54 54 55 56 57 58 59 59 60 60 60 61 61 61 62 62 63 64 65 65 65 65
48 51 51 51 49 48 48 47 45 45 43 42 43 43 42 42 44 43 41 39 38 38 38 39 40 42 43 45 46 46 46 47 48 48 49 50 51 51 51 51 50 51 53 55 56 56 55 55 55 55 55 55 56 57 58 59 59 60 60 61 61 62 62 62 62 63 63 63 64 65 65 66 67 67
48 49 50 50 48 46 47 48 47 46 45 44 46 46 43 42 43 44 44 44 44 43 43 43 44 44 45 45 45 45 45 47 48 49 50 51 52 52 52 52 53 54 56 58 58 58 57 57 57 58 58 57 57 59 60 61 61 62 62 62 62 62 62 63 63 63 63 63 63 64 65 65 66 66
48 47 47 47 46 45 45 45 44 43 42 42 44 46 46 46 47 47 47 48 48 47 46 46 45 45 44 44 44 45 46 47 48 50 51 51 52 52 53 54 56 57 58 59 59 58 58 58 59 59 60 60 60 60 61 61 61 62 62 61 61 61 62 62 62 62 62 63 63 64 64 64 64 64
49 48 47 47 46 46 46 45 43 41 40 41 43 46 47 49 49 48 47 47 46 46 46 45 45 44 43 43 44 45 47 48 49 50 51 52 53 54 55 57 58 59 60 60 60 59 59 59 60 60 61 61 61 62 62 61 60 60 60 60 60 60 60 60 60 61 61 61 62 62 62 62 62 62
49 47 46 46 45 44 45 47 47 46 45 46 46 47 47 48 48 48 46 45 44 44 44 44 44 42 42 43 45 47 50 51 53 53 53 54 55 56 57 59 60 60 61 61 61 61 61 61 62 62 62 62 61 61 61 59 59 58 57 57 57 57 57 58 58 59 59 59 59 59 59 58 58 58
49 48 48 48 47 45 45 47 49 49 49 48 47 47 46 47 46 44 43 43 44 44 45 45 44 43 44 46 49 51 52 53 54 55 55 56 56 58 59 60 61 62 63 63 64 64 64 64 64 63 62 60 59 57 56 55 55 55 55 55 55 55 55 55 55 55 55 54 53 53 52 52 51 50
48 48 48 49 49 48 48 48 48 48 47 47 46 46 46 45 44 43 43 44 44 44 44 45 46 46 48 50 51 51 52 53 54 55 55 56 57 59 61 63 64 65 65 65 65 65 64 63 61 60 58 56 55 53 52 51 52 52 52 52 53 53 53 52 50 49 47 46 45 45 45 45 44 44
49 49 48 48 48 47 47 48 48 47 47 46 47 47 47 45 44 43 44 44 44 44 45 47 48 50 50 50 51 51 52 53 54 56 57 58 60 63 64 66 66 66 65 64 63 62 61 58 55 53 51 51 50 50 49 49 49 50 50 49 48 48 46 45 43 42 41 41 41 42 42 43 43 43
46 47 48 49 50 48 47 46 46 46 47 48 48 47 46 46 44 44 44 44 44 46 48 49 49 50 50 51 52 53 54 55 57 58 60 63 66 68 68 67 66 63 60 58 57 56 54 52 50 48 47 47 47 47 47 47 47 47 45 43 41 41 40 40 39 39 40 40 40 42 43 44 44 45
46 46 46 49 50 50 49 48 46 47 47 48 47 46 46 45 45 44 45 45 47 48 49 49 49 50 51 52 53 55 56 58 59 62 65 69 70 69 66 62 58 55 52 50 49 49 48 46 45 45 45 45 46 46 45 44 42 40 38 38 37 38 38 39 39 40 40 41 43 44 45 45 45 45
53 51 50 49 50 50 50 49 47 47 48 49 49 48 47 46 45 46 47 48 49 48 48 48 49 50 51 52 53 55 57 60 63 66 69 69 65 60 56 52 49 47 45 44 44 44 44 43 43 44 44 44 43 42 39 38 36 35 35 36 37 38 39 40 41 42 43 44 44 44 45 45 44 43
55 53 51 50 48 48 48 48 47 47 48 48 49 48 46 45 45 47 49 50 49 48 48 49 49 49 50 51 53 56 60 63 66 66 63 58 53 49 46 44 43 42 42 42 42 42 43 43 44 44 43 40 37 35 33 32 33 34 34 36 37 38 40 42 42 43 43 43 42 41 42 42 42 40
50 49 48 47 47 46 46 46 48 49 50 50 50 50 48 47 48 48 49 49 48 48 49 49 48 48 49 52 55 59 61 62 60 56 51 46 43 41 40 39 39 40 40 41 42 43 44 44 42 39 35 32 30 31 31 30 31 33 34 35 36 37 39 41 42 42 42 40 39 37 37 38 37 36
43 42 41 41 42 42 43 44 46 48 50 51 53 53 52 51 50 49 49 48 48 48 48 48 47 48 50 53 56 58 56 53 49 45 41 38 37 36 36 37 37 39 40 42 43 44 42 38 34 29 27 26 28 30 31 30 30 31 31 32 34 36 37 38 39 39 39 38 36 34 33 34 33 32
41 38 38 38 38 39 42 44 46 47 49 50 51 51 50 49 48 48 48 48 47 47 46 46 46 48 51 53 54 52 48 44 40 36 34 33 32 33 34 36 37 39 42 44 43 40 35 30 26 24 24 25 27 28 29 29 29 29 30 31 32 34 35 36 36 36 35 33 32 31 31 30 30 29
42 41 40 39 38 40 42 43 44 46 46 47 46 45 44 43 42 42 42 43 43 43 43 44 47 49 50 50 48 45 41 37 33 31 30 29 30 31 33 35 37 40 43 43 39 33 27 24 22 22 23 24 24 25 26 27 28 29 30 31 32 34 35 34 34 33 32 31 31 30 29 27 25 24
45 44 42 39 37 38 39 38 39 40 40 41 40 40 39 38 37 37 37 38 39 41 43 45 47 48 47 45 42 38 34 31 29 28 27 27 29 31 33 35 38 40 41 39 33 27 24 22 21 22 22 22 21 22 23 26 28 30 31 32 33 34 34 33 32 31 31 31 31 28 25 22 21 20
46 46 45 41 38 37 36 35 34 34 35 35 34 34 33 33 33 34 36 38 40 42 44 45 44 43 41 39 35 32 29 27 26 25 25 26 28 30 32 35 38 39 37 33 28 24 22 21 20 20 20 20 20 21 23 25 28 30 32 33 34 33 32 31 30 30 30 31 28 23 20 19 20 20
47 46 44 42 40 38 35 33 32 31 31 31 31 30 30 31 32 35 38 41 43 43 42 40 38 37 36 33 30 27 26 25 23 23 24 26 28 29 31 33 36 37 33 28 25 22 21 19 18 18 18 19 20 22 23 25 27 29 31 33 34 33 31 30 29 29 29 27 22 19 17 18 18 16
46 44 40 38 36 35 34 34 32 30 29 29 28 29 30 32 36 38 41 42 41 38 36 34 34 33 32 29 27 25 24 22 21 22 23 25 26 28 29 31 33 33 29 25 22 20 18 17 17 16 17 18 19 21 23 25 27 30 32 33 33 32 31 30 30 28 24 19 16 14 13 12 10 10
46 46 42 39 37 35 34 35 33 30 29 29 30 32 35 37 37 36 36 36 34 32 31 31 31 30 29 27 25 23 21 20 20 21 23 24 25 26 28 29 31 31 28 23 20 19 17 16 16 16 16 18 20 22 24 26 28 30 32 32 32 33 32 30 27 22 16 12 11 10 8 6 7 8
44 46 44 43 43 40 38 37 35 33 32 34 36 37 36 34 30 28 29 30 30 29 29 29 28 28 27 25 23 22 20 19 20 21 22 23 24 25 26 27 28 28 26 23 20 18 17 17 17 17 18 19 21 23 25 26 27 30 31 31 32 33 31 27 21 14 10 8 8 6 5 6 8 9
38 41 40 40 40 39 38 37 35 35 36 37 35 33 30 26 24 23 24 25 26 27 27 27 27 27 26 24 22 21 19 19 20 21 22 22 22 23 24 25 26 27 26 23 20 19 19 19 19 20 20 21 22 23 24 25 26 28 30 30 31 31 27 21 15 10 8 7 6 5 5 7 9 10
40 40 39 38 37 36 36 36 36 36 36 33 30 28 27 25 24 23 22 23 24 25 26 26 26 26 25 23 22 20 19 19 20 20 21 21 21 21 22 23 24 26 26 24 21 20 20 20 21 21 21 21 21 22 23 24 25 27 28 29 30 29 24 17 11 9 8 6 5 5 7 8 9 10
Wind_Direction
265 266 270 274 278 286 290 294 296 294 293 292 290 290 289 285 283 280 279 279 280 280 280 280 280 281 283 286 288 289 291 292 293 294 295 296 295 295 295 296 296 297 298 298 298 297 297 296 295 294 292 292 290 290 290 290 289 289 289 290 292 293 294 294 293 292 290 287 283 279 274 269 266 264
273 276 277 279 281 283 286 288 287 285 284 282 282 281 277 276 275 275 275 276 276 277 277 277 278 280 282 283 285 287 288 290 291 293 294 295 295 295 294 294 293 292 292 293 293 293 292 292 293 293 292 292 291 291 290 290 290 289 289 289 290 290 291 291 291 290 289 288 286 284 282 279 276 272
274 278 280 283 284 285 285 285 283 281 278 275 274 272 271 272 273 272 273 273 273 273 274 276 278 280 281 283 283 284 286 288 290 291 293 294 295 294 293 292 290 289 289 289 289 289 290 289 289 289 289 289 289 289 289 288 288 288 288 289 289 288 288 289 289 289 288 287 287 286 285 284 285 283
272 276 280 283 284 284 283 281 280 278 275 275 275 275 274 275 274 272 272 272 272 272 272 273 275 276 278 279 281 282 283 285 287 290 291 293 294 294 293 292 290 289 289 288 289 288 289 289 289 289 289 288 288 288 287 287 287 287 287 287 288 288 287 287 287 288 288 287 287 286 286 286 287 287
278 281 284 286 287 288 287 286 283 280 280 282 282 280 279 277 274 271 270 269 268 268 269 269 269 270 271 272 274 276 278 281 284 286 288 289 291 292 293 293 292 291 290 289 290 290 290 289 289 289 289 289 289 289 288 288 288 288 287 287 287 288 288 287 287 286 287 287 287 287 286 287 288 289
287 288 288 288 288 288 289 289 288 287 288 287 282 280 278 275 271 268 267 267 267 266 266 267 268 267 267 268 270 271 273 276 278 281 283 285 287 288 290 291 292 294 294 293 293 292 292 292 291 291 290 290 290 290 289 289 288 288 287 287 286 287 287 287 287 286 286 286 286 286 286 286 286 288
294 294 292 289 286 284 283 284 283 284 283 280 277 275 272 269 267 266 265 265 266 267 266 267 268 270 270 270 272 273 274 275 275 277 279 282 285 286 287 288 289 291 294 295 295 295 295 295 295 294 294 294 293 292 291 290 289 288 287 287 286 286 286 286 286 286 285 284 284 284 284 284 284 285
297 296 294 291 287 283 280 279 278 277 275 272 271 269 268 267 267 267 266 265 265 268 269 270 271 273 274 274 274 275 275 275 277 279 281 283 285 286 286 287 288 288 289 291 293 294 294 294 294 295 295 295 294 293 292 291 290 289 288 287 286 285 285 285 284 284 283 283 282 282 282 282 282 282
297 296 294 291 288 283 281 279 278 277 275 272 271 269 267 268 268 268 268 269 270 270 272 274 275 275 276 276 276 277 277 278 279 281 282 285 286 287 287 287 287 287 286 287 289 291 291 291 290 291 292 292 292 291 290 289 289 288 287 286 285 285 284 283 282 282 281 281 280 279 279 279 279 279
297 296 293 289 285 282 278 276 275 275 274 271 271 271 269 268 269 270 271 272 273 273 272 272 273 273 274 274 274 273 275 277 280 283 285 286 288 289 288 288 287 286 285 284 284 285 287 287 287 287 288 288 288 287 286 285 284 284 284 284 284 283 282 282 281 280 280 280 279 279 278 278 278 278
296 297 294 293 290 285 278 274 273 272 271 270 270 271 271 269 269 270 271 271 271 272 272 272 271 272 272 273 274 275 276 276 279 283 286 288 289 290 290 289 287 287 286 285 283 281 281 282 282 283 284 284 284 284 283 282 281 280 279 279 279 278 278 278 278 278 278 278 278 278 279 278 278 279
290 292 295 297 295 289 281 276 274 273 274 275 275 276 276 274 271 271 272 272 271 271 272 273 274 274 274 275 277 280 281 282 284 286 288 289 290 292 293 292 292 291 290 289 286 284 283 282 282 282 283 282 281 281 281 280 280 279 278 277 276 275 274 273 273 273 273 274 274 275 276 277 277 278
285 288 291 292 290 288 284 279 276 276 276 277 276 276 277 277 275 273 273 273 274 273 272 272 274 275 276 277 278 280 281 283 284 286 288 289 290 292 294 294 294 294 293 291 290 288 286 285 285 285 285 284 284 283 282 281 281 281 280 279 278 277 275 274 273 272 271 271 271 272 273 275 276 276
281 282 284 285 285 285 282 278 277 276 276 277 276 276 276 276 275 274 273 272 273 273 273 273 273 274 275 276 278 279 280 281 283 285 287 288 289 291 292 292 291 290 289 288 288 289 288 287 287 286 286 285 285 284 283 283 283 283 282 282 281 280 279 277 276 275 274 274 273 273 274 274 275 276
282 280 278 278 280 282 280 278 277 275 274 274 274 274 274 275 275 274 273 272 271 271 271 272 273 275 276 277 278 280 282 283 285 287 288 289 291 291 291 290 289 287 287 285 284 286 287 287 287 288 287 286 285 284 283 282 282 282 282 282 282 282 281 280 279 278 277 276 276 276 276 276 276 276
285 284 280 276 275 279 281 280 278 275 272 270 269 269 270 273 275 274 273 271 269 269 270 272 274 277 278 278 280 282 283 284 286 288 289 291 292 292 292 291 288 287 286 285 284 283 285 285 285 286 287 286 285 285 284 283 283 282 281 281 281 281 281 281 281 280 279 278 277 276 276 276 276 276
284 284 282 279 277 276 278 279 278 275 273 272 270 269 270 271 271 272 272 269 268 269 271 273 275 277 279 279 281 284 285 286 288 290 291 292 292 292 291 290 289 287 286 286 285 284 284 284 283 284 285 285 285 285 285 285 284 283 282 281 281 280 280 280 280 280 279 279 278 277 277 276 275 275
281 282 280 278 278 276 275 276 277 276 276 275 273 272 272 271 270 269 268 269 274 277 277 277 277 278 280 282 284 287 288 289 290 290 291 291 290 289 289 288 288 289 289 288 288 288 288 288 287 286 286 286 286 286 286 286 286 285 284 284 283 282 281 281 280 280 280 279 279 278 278 277 276 276
278 280 281 280 281 281 279 275 273 273 274 274 274 274 273 271 269 268 268 273 280 282 280 277 276 278 281 284 287 288 290 290 290 290 289 289 288 287 287 287 288 289 290 290 290 290 291 291 290 289 288 288 287 287 286 286 286 286 285 285 284 284 283 282 282 281 280 280 279 279 278 278 277 277
276 277 278 280 283 284 282 277 273 270 270 272 274 275 274 271 270 271 273 277 280 280 278 275 276 279 282 285 287 288 289 290 289 289 288 288 288 288 288 288 289 291 292 292 292 293 293 292 292 291 291 290 289 288 287 287 287 286 286 286 285 285 285 284 283 282 281 281 280 280 279 279 278 278
275 276 277 278 280 280 280 279 277 274 272 272 271 273 275 273 270 270 273 275 275 275 275 277 279 282 284 286 288 289 289 289 289 289 289 288 288 288 288 288 289 291 293 294 295 295 294 293 293 292 292 292 291 290 289 289 288 288 288 287 287 287 286 286 285 284 283 282 282 281 281 280 280 279
273 276 277 278 278 278 278 277 277 276 275 273 270 271 273 270 267 269 274 276 277 277 279 281 284 285 286 287 288 288 289 289 289 289 289 289 289 288 288 288 289 292 295 297 298 297 296 295 294 293 293 293 293 292 291 290 290 289 288 288 287 287 287 286 286 285 284 284 283 282 282 281 281 281
274 274 275 276 276 278 278 277 277 276 273 270 269 270 270 268 270 276 281 283 285 286 287 287 287 287 287 288 288 288 289 290 290 291 291 291 291 291 292 292 294 296 299 300 299 298 297 296 295 294 294 293 292 292 291 291 290 289 288 288 287 287 286 286 285 284 284 283 283 282 282 282 281 281
276 275 275 275 275 276 278 277 276 274 271 268 266 267 269 270 275 281 284 285 287 289 289 289 289 288 288 288 289 290 290 291 292 293 292 292 290 290 291 293 295 297 299 298 297 297 296 295 295 294 294 293 292 291 290 290 289 289 288 288 287 286 285 285 284 283 283 282 282 281 281 281 280 279
276 275 274 272 271 271 273 274 272 270 269 267 267 268 270 272 276 280 283 286 287 288 289 290 289 288 287 287 288 288 289 290 291 291 289 288 287 288 289 291 293 295 296 296 295 295 294 294 293 293 292 292 291 290 289 289 289 288 288 287 286 286 285 285 284 284 283 283 282 281 280 280 279 278
272 271 269 269 268 267 267 268 267 267 268 268 270 271 273 274 276 278 280 283 285 287 288 289 288 287 286 286 287 288 290 292 292 291 290 289 289 290 291 292 293 294 295 295 295 294 294 294 293 292 292 291 290 289 289 289 289 289 288 288 287 286 286 285 285 284 284 284 283 283 282 281 280 279
267 265 264 266 265 264 263 263 264 266 267 269 271 273 275 276 276 276 276 280 284 285 286 286 286 285 286 287 289 291 293 294 294 293 293 292 293 294 295 296 296 296 296 296 296 296 296 295 294 294 293 292 292 291 291 291 290 290 290 290 289 288 287 286 286 285 285 285 284 284 283 283 282 281
264 261 261 262 263 262 263 264 265 267 268 269 271 273 275 276 274 274 277 281 284 285 285 284 284 285 287 289 291 292 293 294 294 295 295 295 295 297 298 298 298 298 297 297 296 296 296 295 295 295 295 295 294 294 293 292 291 291 291 291 290 290 289 289 288 287 287 286 286 285 285 284 284 283
263 261 260 260 261 262 263 264 265 267 268 270 272 274 274 273 272 274 279 282 284 285 285 284 285 285 287 289 291 293 293 293 294 295 296 297 298 298 298 298 297 297 296 296 295 295 294 294 294 295 295 295 295 294 294 293 292 292 291 291 291 290 290 290 290 290 289 289 288 287 286 286 285 284
261 261 260 259 259 261 263 264 266 267 268 270 271 272 271 270 271 276 279 281 284 285 285 285 285 286 288 290 291 292 293 293 294 296 298 299 299 299 298 298 297 297 296 296 295 294 293 293 294 294 295 294 294 294 294 293 293 293 293 292 292 291 292 292 292 291 290 289 288 287 287 286 286 285
261 261 261 260 260 261 262 264 266 267 268 269 270 269 269 269 272 276 277 279 283 285 285 285 286 287 289 290 290 291 292 293 295 296 297 298 298 299 299 299 299 298 297 296 295 294 294 295 295 295 295 295 295 295 295 294 294 294 295 295 294 293 293 292 291 290 289 289 289 288 288 287 286 284
263 263 263 264 263 262 262 263 265 266 267 267 267 267 267 269 271 273 276 278 281 283 284 285 287 288 289 290 290 291 292 293 294 295 296 298 299 299 300 300 299 298 297 296 296 297 297 298 298 297 297 297 297 297 296 295 296 296 296 296 295 295 294 293 292 291 291 290 290 290 289 288 285 283
263 264 266 266 264 263 262 261 262 264 265 265 265 265 265 266 269 273 275 276 279 282 284 285 286 287 288 289 290 292 293 294 294 295 297 299 300 300 300 300 299 299 299 299 299 300 300 300 300 299 299 299 298 296 296 296 297 298 298 297 297 298 297 296 296 295 294 294 293 292 290 288 286 284
263 265 265 265 264 263 263 261 260 261 263 265 266 266 265 266 270 273 273 274 278 281 282 283 284 284 286 288 291 293 294 294 295 297 298 299 299 299 300 300 301 301 302 302 302 303 303 302 301 300 300 299 297 296 297 298 299 300 300 301 302 302 301 300 300 299 298 297 296 294 291 289 287 285
263 264 263 264 264 264 263 262 261 261 263 264 266 267 268 270 271 271 271 273 276 278 279 280 281 283 286 290 293 294 295 296 296 297 298 298 299 300 301 302 303 304 304 305 305 306 305 303 301 300 299 298 297 298 300 302 303 303 305 306 306 305 303 303 302 302 301 299 298 296 293 291 289 287
257 258 257 259 261 261 261 261 261 262 262 264 265 267 269 270 270 270 270 272 274 276 278 279 281 286 291 294 295 295 295 296 296 297 297 299 300 301 303 304 305 306 307 308 308 307 305 302 300 298 296 296 298 300 303 306 307 308 310 311 310 308 307 306 305 304 303 301 299 297 296 294 292 289
251 253 254 257 259 258 257 258 259 259 260 261 262 264 265 266 266 266 268 271 274 277 279 282 286 291 294 294 294 295 295 295 295 296 297 299 300 302 304 306 308 310 310 310 308 306 303 300 298 296 295 296 298 302 306 310 311 313 315 316 315 313 313 311 308 307 305 303 302 301 300 298 296 293
250 254 257 258 255 252 254 256 257 257 256 256 257 258 259 260 261 263 267 271 275 278 282 287 292 294 293 292 293 294 293 292 294 295 296 298 301 303 305 308 311 313 312 309 306 303 301 298 296 295 296 297 300 304 308 311 314 317 320 320 319 317 315 312 309 307 306 306 305 305 303 302 301 299
253 257 259 257 252 250 253 255 254 252 252 251 253 255 258 261 263 267 271 275 279 283 288 292 292 291 290 292 292 290 290 291 292 293 295 298 301 304 307 311 315 316 313 308 303 300 298 296 295 296 298 300 303 306 310 312 316 319 322 322 322 320 317 314 310 307 307 308 308 307 306 305 305 304
253 256 256 253 249 249 250 248 245 244 244 246 250 255 260 266 271 275 279 283 287 290 291 289 288 288 290 290 288 287 288 289 288 290 294 299 302 306 309 313 317 318 314 306 299 297 297 295 296 299 302 306 308 311 315 318 321 323 325 325 324 322 320 317 312 309 309 309 309 309 309 310 311 312
247 247 247 245 242 241 241 241 242 245 246 248 254 260 267 275 281 284 286 288 290 290 287 285 286 289 288 285 285 286 286 283 284 289 295 299 303 307 310 314 319 321 316 305 297 296 295 294 298 304 310 315 319 321 323 324 325 328 329 328 326 325 324 320 316 313 311 311 312 314 318 323 330 336
244 243 244 244 242 241 243 246 251 255 258 262 268 273 277 282 285 285 285 286 286 284 284 285 287 286 283 282 284 283 279 277 283 290 295 300 304 308 310 315 321 325 320 307 295 292 291 292 299 308 315 322 326 328 328 328 330 331 332 331 330 331 329 325 321 318 315 316 320 327 338 359 11 7
248 248 250 250 248 248 252 255 259 264 269 274 278 280 282 282 281 278 279 281 282 282 284 286 285 283 281 281 280 275 271 274 282 289 295 301 305 308 311 315 321 327 325 311 294 286 286 289 297 306 313 319 325 328 329 330 332 333 334 335 337 337 334 330 327 325 322 325 332 342 5 22 20 12
246 246 249 251 249 250 254 258 264 270 274 277 279 279 280 277 270 268 275 282 284 285 285 284 283 280 279 278 273 266 266 273 281 289 296 301 305 308 311 314 320 328 331 320 300 285 281 284 291 299 306 313 319 324 327 330 332 335 337 340 342 342 338 334 330 327 328 331 333 340 354 2 2 359
239 239 243 249 252 254 255 259 265 270 271 271 272 273 272 266 258 262 278 291 293 290 285 282 281 279 276 271 264 260 264 273 282 289 295 300 305 310 312 314 319 328 334 331 314 293 282 282 287 293 300 307 314 320 325 329 332 337 342 344 345 345 343 335 325 321 322 321 321 326 331 335 339 342
Height
5768 5768 5768 5768 5768 5768 5769 5770 5770 5771 5772 5772 5773 5773 5774 5774 5774 5775 5775 5775 5775 5775 5775 5775 5775 5775 5775 5775 5775 5775 5775 5775 5775 5775 5774 5774 5774 5774 5774 5774 5773 5773 5773 5772 5772 5772 5771 5771 5771 5771 5770 5770 5770 5770 5770 5770 5770 5769 5769 5769 5768 5768 5768 5768 5768 5768 5768 5768 5768 5768 5768 5769 5769 5769
5767 5767 5767 5767 5767 5767 5767 5768 5768 5769 5769 5770 5770 5771 5772 5772 5773 5773 5773 5773 5773 5773 5773 5773 5774 5774 5774 5774 5774 5774 5774 5774 5773 5773 5773 5773 5773 5772 5772 5772 5772 5772 5771 5771 5771 5770 5770 5770 5769 5769 5769 5769 5768 5768 5768 5768 5767 5767 5767 5767 5767 5766 5766 5766 5766 5766 5766 5766 5766 5766 5766 5766 5766 5766
5766 5766 5766 5766 5766 5766 5766 5766 5767 5767 5768 5768 5769 5769 5770 5770 5771 5771 5771 5771 5771 5772 5772 5772 5772 5772 5772 5772 5772 5772 5772 5772 5772 5772 5771 5771 5771 5771 5770 5770 5770 5770 5769 5769 5769 5769 5768 5768 5768 5767 5767 5767 5767 5766 5766 5766 5766 5765 5765 5765 5765 5765 5764 5764 5764 5764 5763 5763 5763 5763 5763 5763 5763 5763
5764 5765 5765 5765 5765 5765 5765 5765 5765 5766 5766 5766 5767 5767 5768 5768 5769 5769 5769 5769 5769 5770 5770 5770 5771 5771 5771 5771 5771 5771 5770 5770 5770 5770 5770 5769 5769 5768 5768 5768 5768 5767 5767 5767 5767 5767 5767 5766 5766 5766 5765 5765 5765 5764 5764 5764 5763 5763 5763 5763 5762 5762 5762 5762 5762 5761 5761 5761 5761 5760 5760 5760 5760 5760
5763 5763 5763 5763 5763 5763 5763 5763 5763 5764 5764 5764 5765 5765 5766 5766 5767 5767 5767 5767 5768 5768 5768 5768 5769 5769 5769 5769 5769 5768 5768 5768 5768 5768 5767 5767 5767 5767 5766 5766 5765 5765 5765 5765 5765 5765 5765 5764 5764 5764 5763 5763 5762 5762 5762 5761 5761 5760 5760 5760 5759 5759 5759 5759 5759 5759 5759 5758 5758 5758 5757 5757 5757 5757
5762 5762 5762 5762 5761 5761 5761 5761 5761 5762 5762 5763 5763 5763 5764 5764 5764 5765 5765 5765 5765 5766 5766 5766 5766 5766 5766 5766 5766 5766 5766 5766 5766 5766 5765 5765 5765 5765 5765 5764 5763 5763 5763 5763 5763 5763 5762 5762 5762 5761 5761 5760 5760 5759 5759 5758 5758 5757 5757 5756 5756 5756 5756 5756 5756 5756 5756 5756 5755 5755 5755 5755 5754 5754
5760 5760 5760 5760 5759 5759 5759 5760 5760 5760 5761 5761 5761 5761 5761 5761 5762 5762 5763 5763 5763 5763 5764 5764 5764 5764 5764 5764 5764 5764 5764 5764 5763 5763 5763 5763 5763 5763 5763 5762 5762 5761 5761 5761 5760 5760 5760 5759 5759 5759 5758 5758 5757 5757 5756 5755 5755 5754 5754 5753 5753 5752 5752 5752 5752 5752 5752 5752 5752 5752 5752 5752 5752 5751
5758 5758 5757 5757 5757 5757 5758 5758 5757 5758 5759 5759 5759 5759 5759 5759 5759 5759 5760 5761 5761 5761 5761 5762 5762 5761 5761 5762 5762 5762 5761 5761 5761 5761 5761 5760 5760 5760 5760 5760 5760 5760 5759 5758 5757 5757 5757 5757 5756 5756 5755 5755 5754 5754 5753 5752 5751 5751 5750 5749 5749 5749 5748 5748 5748 5748 5748 5748 5748 5748 5748 5748 5748 5748
5755 5755 5755 5755 5755 5755 5755 5756 5755 5756 5757 5756 5756 5756 5757 5757 5757 5756 5757 5758 5758 5759 5759 5759 5759 5759 5759 5759 5759 5759 5759 5758 5758 5758 5758 5758 5757 5757 5757 5757 5757 5757 5757 5756 5755 5754 5754 5754 5754 5753 5752 5751 5751 5750 5749 5748 5748 5747 5746 5745 5745 5745 5744 5744 5744 5743 5743 5743 5743 5743 5743 5743 5743 5744
5753 5753 5752 5752 5752 5752 5753 5753 5753 5753 5753 5753 5753 5753 5754 5755 5754 5753 5754 5755 5755 5755 5756 5756 5756 5756 5756 5756 5756 5756 5756 5755 5755 5755 5755 5754 5754 5754 5754 5754 5753 5753 5754 5754 5753 5752 5750 5750 5750 5749 5749 5748 5747 5747 5746 5745 5744 5743 5742 5741 5741 5740 5740 5739 5739 5738 5738 5738 5738 5738 5738 5738 5738 5738
5750 5750 5750 5750 5750 5750 5750 5750 5750 5750 5750 5750 5751 5750 5751 5752 5752 5751 5751 5752 5752 5752 5752 5752 5753 5753 5753 5753 5752 5753 5753 5752 5752 5752 5751 5751 5751 5751 5750 5750 5750 5750 5749 5749 5749 5749 5747 5747 5746 5745 5745 5744 5742 5742 5741 5740 5739 5739 5738 5737 5736 5736 5735 5735 5734 5733 5733 5732 5732 5732 5731 5731 5731 5731
5748 5748 5748 5748 5747 5748 5748 5748 5747 5747 5747 5747 5748 5748 5747 5748 5748 5748 5748 5748 5748 5748 5748 5748 5749 5749 5750 5750 5749 5749 5749 5748 5748 5748 5748 5747 5747 5747 5746 5745 5745 5745 5745 5745 5744 5744 5743 5742 5742 5741 5740 5739 5738 5737 5736 5735 5733 5733 5732 5731 5730 5730 5730 5729 5728 5728 5727 5726 5726 5725 5725 5725 5725 5724
5745 5745 5745 5745 5745 5745 5745 5744 5744 5744 5744 5744 5744 5744 5744 5743 5744 5744 5744 5744 5744 5744 5745 5744 5744 5745 5745 5745 5746 5745 5745 5744 5744 5744 5744 5743 5743 5743 5742 5741 5739 5739 5740 5740 5739 5738 5737 5737 5736 5735 5734 5733 5732 5731 5730 5729 5728 5726 5725 5724 5723 5723 5722 5722 5722 5721 5720 5720 5719 5719 5718 5718 5717 5717
5742 5742 5742 5741 5741 5741 5741 5741 5740 5740 5740 5740 5740 5740 5740 5739 5739 5740 5740 5740 5740 5739 5740 5740 5740 5740 5741 5741 5741 5740 5740 5740 5740 5740 5740 5739 5739 5738 5738 5737 5735 5734 5734 5734 5734 5732 5730 5730 5730 5729 5728 5726 5725 5725 5724 5723 5722 5721 5719 5718 5716 5715 5714 5714 5714 5713 5713 5712 5712 5711 5711 5710 5710 5709
5738 5738 5737 5737 5736 5736 5736 5737 5737 5736 5736 5736 5736 5737 5736 5735 5735 5735 5735 5736 5736 5735 5735 5735 5736 5736 5736 5736 5736 5735 5735 5735 5735 5735 5734 5734 5734 5733 5733 5732 5730 5728 5727 5727 5728 5727 5724 5723 5723 5722 5721 5719 5718 5717 5717 5716 5716 5714 5713 5711 5710 5708 5707 5706 5705 5705 5705 5704 5703 5702 5702 5702 5701 5701
5733 5733 5733 5733 5732 5732 5732 5732 5733 5733 5733 5732 5732 5733 5732 5732 5731 5731 5731 5731 5731 5731 5731 5731 5731 5731 5731 5731 5731 5731 5731 5731 5730 5729 5729 5728 5727 5727 5726 5725 5724 5723 5721 5721 5721 5721 5719 5718 5717 5716 5714 5713 5711 5710 5709 5708 5708 5707 5706 5704 5703 5701 5700 5698 5697 5697 5696 5696 5695 5694 5694 5693 5693 5692
5728 5727 5727 5728 5728 5728 5728 5728 5728 5729 5729 5728 5728 5728 5728 5727 5727 5726 5726 5727 5727 5727 5727 5727 5727 5726 5726 5726 5726 5726 5726 5725 5724 5724 5723 5721 5721 5720 5719 5718 5717 5716 5715 5714 5714 5715 5714 5712 5712 5710 5708 5706 5705 5703 5701 5700 5699 5698 5697 5696 5695 5693 5692 5690 5689 5688 5687 5687 5686 5685 5685 5684 5684 5683
5723 5721 5721 5723 5723 5723 5724 5724 5724 5724 5724 5724 5724 5724 5723 5722 5722 5721 5721 5722 5722 5723 5722 5722 5722 5722 5721 5721 5721 5720 5720 5719 5719 5718 5717 5716 5715 5714 5713 5711 5710 5709 5707 5706 5707 5707 5707 5706 5705 5704 5701 5699 5698 5695 5693 5691 5690 5689 5687 5686 5685 5684 5683 5682 5680 5679 5678 5677 5676 5675 5675 5675 5674 5674
5719 5718 5717 5717 5717 5718 5719 5719 5719 5718 5718 5718 5719 5719 5719 5718 5718 5717 5717 5717 5717 5717 5717 5717 5717 5716 5716 5715 5715 5714 5714 5713 5713 5712 5711 5710 5709 5708 5707 5705 5704 5702 5700 5699 5699 5700 5699 5697 5696 5696 5694 5692 5691 5688 5685 5683 5682 5680 5678 5677 5675 5674 5673 5672 5671 5670 5668 5667 5666 5665 5665 5664 5664 5663
5714 5714 5712 5712 5712 5712 5712 5713 5713 5713 5713 5714 5714 5714 5714 5714 5714 5713 5712 5711 5711 5711 5711 5711 5711 5710 5710 5710 5709 5709 5708 5707 5706 5706 5704 5703 5702 5701 5700 5699 5697 5696 5694 5692 5691 5692 5691 5689 5688 5687 5686 5684 5683 5681 5678 5676 5674 5672 5670 5668 5666 5665 5664 5662 5661 5660 5658 5657 5656 5654 5654 5654 5653 5652
5709 5707 5707 5707 5708 5707 5706 5706 5707 5707 5707 5708 5708 5708 5708 5709 5708 5707 5707 5706 5706 5705 5705 5705 5705 5705 5704 5704 5703 5703 5702 5701 5700 5699 5698 5696 5695 5694 5693 5691 5690 5689 5687 5685 5685 5684 5683 5682 5680 5679 5678 5676 5674 5672 5669 5667 5665 5663 5661 5659 5657 5656 5654 5652 5651 5649 5648 5646 5645 5644 5643 5643 5642 5642
5704 5702 5701 5701 5702 5702 5700 5700 5701 5700 5700 5701 5702 5702 5703 5703 5702 5701 5701 5701 5700 5700 5700 5700 5699 5699 5698 5698 5697 5697 5696 5695 5693 5692 5691 5689 5687 5686 5685 5684 5683 5682 5679 5678 5678 5676 5675 5674 5672 5670 5670 5668 5665 5662 5660 5658 5656 5654 5652 5650 5648 5646 5644 5643 5641 5639 5638 5636 5635 5633 5632 5632 5631 5631
5698 5697 5695 5695 5696 5695 5694 5694 5694 5694 5694 5695 5695 5696 5697 5697 5696 5694 5694 5695 5695 5694 5694 5694 5693 5693 5692 5691 5690 5690 5689 5687 5686 5685 5683 5681 5680 5679 5678 5676 5676 5674 5672 5670 5669 5668 5667 5666 5663 5661 5660 5660 5658 5654 5651 5649 5646 5644 5643 5641 5640 5637 5635 5633 5632 5630 5628 5627 5625 5624 5622 5621 5621 5620
5690 5690 5689 5689 5689 5689 5688 5688 5688 5688 5688 5689 5689 5690 5690 5691 5690 5689 5688 5688 5689 5688 5687 5687 5687 5686 5685 5685 5683 5682 5681 5680 5680 5679 5677 5676 5674 5673 5672 5671 5669 5668 5665 5663 5662 5661 5659 5657 5655 5653 5651 5650 5649 5647 5644 5641 5637 5634 5633 5632 5630 5628 5626 5624 5622 5620 5619 5617 5615 5614 5612 5611 5610 5609
5683 5683 5682 5683 5683 5683 5682 5682 5682 5682 5683 5683 5683 5684 5684 5684 5685 5684 5683 5683 5683 5682 5681 5681 5681 5680 5680 5679 5677 5676 5676 5675 5675 5674 5673 5671 5669 5668 5666 5665 5664 5662 5658 5656 5654 5653 5652 5649 5647 5645 5643 5641 5640 5638 5635 5632 5628 5626 5625 5623 5621 5619 5616 5614 5612 5611 5609 5607 5605 5604 5602 5601 5599 5598
5676 5675 5675 5675 5676 5676 5676 5676 5676 5676 5677 5677 5677 5678 5678 5678 5679 5679 5678 5677 5677 5677 5676 5675 5675 5675 5674 5673 5672 5671 5670 5669 5668 5667 5666 5665 5663 5661 5659 5657 5656 5654 5651 5648 5646 5644 5643 5640 5638 5636 5634 5632 5630 5628 5626 5623 5619 5616 5615 5614 5611 5609 5607 5605 5603 5601 5599 5597 5595 5593 5591 5590 5589 5588
5667 5667 5668 5668 5668 5669 5669 5669 5670 5670 5670 5671 5672 5672 5672 5672 5672 5672 5672 5672 5671 5671 5671 5670 5669 5669 5668 5667 5666 5665 5663 5662 5661 5660 5659 5657 5655 5653 5651 5649 5646 5644 5642 5639 5636 5633 5632 5630 5627 5625 5623 5622 5621 5619 5617 5614 5611 5608 5606 5604 5602 5599 5598 5596 5595 5592 5590 5588 5586 5584 5582 5580 5579 5578
5659 5658 5660 5661 5661 5662 5663 5663 5663 5664 5664 5665 5665 5666 5666 5666 5666 5666 5666 5666 5666 5666 5665 5665 5664 5663 5662 5661 5660 5659 5658 5656 5655 5653 5652 5651 5649 5647 5644 5641 5639 5636 5633 5630 5627 5625 5623 5621 5618 5616 5613 5612 5610 5609 5608 5606 5602 5600 5599 5596 5593 5590 5588 5587 5585 5584 5582 5581 5578 5576 5574 5573 5571 5570
5650 5650 5653 5654 5654 5656 5657 5657 5658 5658 5659 5659 5659 5659 5660 5660 5660 5660 5660 5660 5660 5660 5659 5659 5658 5657 5656 5655 5654 5653 5652 5650 5649 5647 5645 5644 5642 5640 5637 5635 5631 5628 5625 5623 5620 5617 5615 5613 5611 5609 5607 5604 5602 5601 5600 5598 5595 5592 5591 5589 5586 5582 5581 5579 5578 5576 5575 5573 5571 5569 5567 5566 5564 5563
5642 5644 5646 5647 5648 5650 5651 5651 5652 5652 5653 5653 5653 5653 5654 5654 5655 5655 5654 5655 5655 5654 5653 5653 5652 5652 5651 5649 5648 5647 5646 5644 5642 5640 5639 5636 5634 5631 5629 5626 5623 5620 5618 5615 5612 5610 5608 5606 5605 5603 5601 5598 5596 5594 5592 5590 5588 5585 5583 5582 5580 5577 5575 5573 5572 5570 5568 5567 5565 5562 5560 5558 5557 5556
5636 5638 5640 5640 5642 5643 5644 5645 5645 5646 5646 5647 5647 5648 5648 5648 5649 5649 5649 5649 5649 5649 5648 5647 5647 5646 5645 5644 5643 5641 5639 5638 5636 5634 5631 5629 5626 5623 5620 5618 5615 5613 5611 5608 5605 5603 5601 5600 5598 5596 5594 5591 5589 5587 5585 5583 5581 5579 5577 5575 5574 5572 5569 5568 5566 5563 5562 5560 5558 5555 5553 5551 5549 5548
5628 5630 5632 5634 5635 5636 5636 5638 5639 5640 5640 5641 5641 5642 5642 5642 5643 5644 5643 5643 5644 5644 5643 5642 5641 5641 5640 5639 5637 5636 5634 5632 5630 5627 5624 5621 5618 5616 5613 5611 5609 5607 5604 5602 5599 5597 5595 5593 5592 5589 5587 5585 5582 5580 5578 5577 5575 5574 5572 5570 5568 5566 5563 5561 5559 5557 5554 5553 5551 5548 5546 5543 5542 5541
5622 5624 5625 5626 5628 5628 5629 5631 5632 5633 5634 5634 5635 5635 5635 5636 5637 5638 5638 5638 5638 5638 5637 5637 5636 5635 5634 5633 5632 5630 5628 5626 5623 5620 5617 5615 5612 5610 5607 5605 5603 5601 5599 5597 5594 5592 5590 5587 5585 5583 5580 5578 5576 5575 5573 5572 5570 5569 5567 5565 5563 5560 5557 5554 5552 5549 5547 5546 5544 5542 5539 5536 5535 5534
5615 5617 5618 5619 5620 5622 5623 5624 5625 5626 5627 5628 5628 5628 5629 5630 5632 5632 5632 5632 5633 5633 5632 5631 5631 5630 5629 5628 5626 5624 5622 5619 5616 5614 5611 5609 5607 5605 5603 5601 5598 5596 5594 5591 5589 5587 5584 5581 5579 5577 5575 5573 5571 5570 5569 5568 5567 5565 5562 5560 5558 5555 5552 5548 5546 5543 5541 5539 5537 5536 5533 5530 5529 5528
5608 5610 5612 5613 5614 5615 5616 5617 5618 5620 5620 5621 5621 5621 5622 5624 5625 5626 5627 5627 5627 5627 5627 5627 5626 5625 5624 5622 5620 5618 5616 5613 5610 5608 5606 5604 5602 5600 5598 5596 5594 5591 5589 5586 5583 5581 5578 5576 5574 5572 5571 5570 5568 5565 5564 5563 5562 5560 5558 5556 5553 5550 5547 5544 5540 5537 5535 5533 5531 5530 5528 5525 5524 5523
5603 5604 5606 5607 5608 5609 5610 5611 5612 5613 5614 5614 5615 5616 5617 5618 5619 5620 5620 5621 5621 5621 5621 5621 5621 5619 5618 5616 5614 5612 5610 5608 5606 5604 5602 5600 5598 5596 5594 5592 5590 5587 5584 5581 5578 5575 5573 5571 5570 5569 5568 5567 5565 5563 5561 5559 5557 5556 5554 5552 5549 5545 5542 5539 5535 5533 5531 5528 5526 5525 5523 5521 5519 5518
5598 5599 5600 5601 5602 5602 5603 5604 5606 5607 5608 5609 5610 5611 5612 5613 5614 5614 5614 5615 5616 5616 5616 5615 5615 5614 5612 5610 5608 5607 5605 5603 5601 5600 5598 5596 5595 5593 5591 5588 5586 5583 5579 5575 5573 5571 5569 5568 5567 5566 5565 5564 5563 5561 5558 5556 5554 5552 5550 5548 5544 5540 5537 5534 5531 5528 5526 5524 5522 5520 5519 5517 5515 5514
5591 5592 5593 5595 5596 5596 5597 5599 5600 5601 5603 5604 5605 5606 5607 5608 5610 5610 5610 5610 5611 5611 5611 5610 5609 5608 5607 5605 5603 5602 5600 5599 5597 5596 5595 5593 5591 5589 5587 5584 5582 5579 5574 5571 5569 5568 5567 5565 5564 5563 5562 5561 5560 5559 5556 5554 5551 5548 5546 5543 5540 5536 5533 5530 5527 5524 5522 5520 5518 5517 5515 5513 5512 5511
5585 5586 5588 5589 5590 5591 5593 5595 5596 5596 5598 5599 5600 5601 5602 5603 5605 5605 5605 5606 5606 5606 5606 5605 5603 5602 5601 5600 5599 5598 5596 5595 5594 5593 5591 5590 5588 5586 5584 5581 5578 5575 5571 5567 5565 5565 5564 5563 5562 5560 5559 5558 5557 5556 5554 5552 5549 5545 5542 5539 5536 5533 5529 5526 5523 5521 5518 5517 5515 5513 5512 5511 5509 5508
5579 5581 5582 5584 5585 5586 5589 5590 5591 5592 5593 5594 5595 5596 5597 5598 5599 5600 5600 5600 5600 5600 5600 5599 5598 5597 5596 5596 5595 5594 5593 5592 5591 5590 5588 5587 5585 5583 5581 5578 5575 5571 5567 5564 5563 5562 5561 5560 5559 5558 5557 5556 5554 5553 5551 5548 5546 5543 5539 5535 5532 5529 5526 5522 5519 5517 5515 5513 5512 5510 5509 5508 5507 5506
5574 5576 5577 5578 5579 5582 5584 5585 5586 5587 5588 5589 5591 5592 5593 5594 5595 5595 5595 5595 5595 5594 5594 5594 5593 5592 5592 5592 5591 5590 5589 5588 5588 5587 5585 5584 5582 5580 5578 5575 5572 5569 5565 5562 5560 5559 5559 5558 5557 5556 5554 5553 5551 5550 5547 5545 5542 5539 5536 5532 5529 5525 5522 5519 5515 5513 5511 5510 5510 5509 5508 5507 5506 5505
5566 5569 5571 5572 5574 5577 5579 5580 5581 5582 5583 5584 5586 5587 5588 5589 5590 5590 5590 5590 5590 5590 5589 5589 5589 5589 5588 5588 5588 5587 5586 5585 5585 5584 5582 5581 5579 5577 5575 5573 5570 5566 5562 5560 5558 5557 5556 5555 5554 5553 5552 5551 5549 5547 5545 5542 5539 5536 5533 5530 5526 5522 5518 5515 5512 5510 5509 5509 5508 5508 5507 5507 5506 5505
5560 5563 5565 5565 5569 5572 5573 5574 5576 5577 5578 5580 5581 5582 5583 5584 5585 5585 5585 5585 5585 5586 5586 5585 5585 5585 5585 5585 5584 5584 5583 5583 5582 5581 5579 5578 5576 5574 5572 5570 5567 5564 5560 5557 5556 5555 5554 5553 5552 5551 5550 5548 5546 5544 5542 5540 5537 5534 5531 5527 5523 5519 5515 5512 5510 5509 5508 5508 5508 5508 5507 5507 5506 5505
5555 5557 5558 5559 5563 5566 5568 5570 5572 5573 5574 5576 5577 5577 5578 5579 5580 5581 5581 5581 5581 5582 5582 5582 5582 5582 5581 5581 5581 5580 5580 5580 5579 5578 5577 5575 5574 5572 5570 5568 5565 5562 5559 5555 5553 5552 5551 5550 5549 5548 5547 5546 5544 5542 5540 5538 5535 5532 5529 5525 5522 5518 5514 5511 5509 5509 5508 5508 5508 5508 5507 5507 5506 5505
5549 5551 5553 5555 5557 5560 5563 5567 5568 5568 5570 5571 5572 5573 5575 5576 5576 5577 5577 5578 5578 5578 5578 5578 5578 5578 5578 5578 5577 5578 5577 5577 5576 5575 5574 5573 5571 5569 5567 5565 5563 5560 5557 5554 5551 5549 5548 5548 5547 5546 5545 5543 5542 5540 5538 5536 5533 5530 5527 5523 5520 5517 5514 5511 5510 5509 5508 5508 5508 5507 5507 5506 5506 5505